Regional Weather Roundup
Issued by NWS

Home | Current Version | Previous Version | Text Only | Print | Product List | Glossary On
Versions: 1 2 3 4 5 6 7 8 9 10 11 12 13 14 15 16 17 18 19 20 21 22 23 24 25 26 27 28 29 30 31 32 33 34 35 36 37 38 39 40 41 42 43 44 45 46 47 48 49 50
000
ASUS43 KMKX 020811
RWRWI

WISCONSIN REGIONAL WEATHER ROUNDUP
NATIONAL WEATHER SERVICE MILWAUKEE/SULLIVAN WI
200 AM CST FRI DEC 02 2016

NOTE: "FAIR" INDICATES FEW OR NO CLOUDS BELOW 12,000 FEET WITH NO
SIGNIFICANT WEATHER AND/OR OBSTRUCTIONS TO VISIBILITY.

WIZ001-002-006>008-014>016-023>028-020900-
NORTHWEST WISCONSIN

CITY           SKY/WX    TMP DP  RH WIND       PRES   REMARKS
SUPERIOR ARPT  CLOUDY    30  24  76 N5        30.06R WCI  25
ASHLAND        CLOUDY    29  24  82 W9        30.03R WCI  20
HAYWARD        CLOUDY    29  21  72 CALM      30.02R
SIREN          CLOUDY    29  21  70 CALM      30.07R
CUMBERLAND     CLOUDY    28  21  74 N8        30.04R WCI  20
RICE LAKE      CLOUDY    30  22  74 N8        30.05R WCI  22
CHETEK         CLOUDY    30  22  73 N6        30.04R WCI  24
LADYSMITH      CLOUDY    30  24  78 NW6       30.03R WCI  24
EAU CLAIRE     CLOUDY    31  22  69 NW9       30.04R WCI  23
MENOMONIE      CLOUDY    32  24  72 NW10      30.05R WCI  23
NEW RICHMOND   CLOUDY    30  23  74 NW9       30.06R WCI  22
OSCEOLA        CLOUDY    31  23  72 NW3       30.10R
$$

WIZ003>005-009-010-017-018-020900-
NORTH CENTRAL WISCONSIN

CITY           SKY/WX    TMP DP  RH WIND       PRES   REMARKS
MANITOWISH WTR CLOUDY    26  26 100 NW7       29.95R WCI  19
ARBOR VITAE    CLOUDY    29  27  90 NW8       29.95R WCI  21
WOODRUFF       CLOUDY    29  27  90 NW8       29.95R WCI  21
RHINELANDER    CLOUDY    28  26  92 NW7       29.95R WCI  21
EAGLE RIVER    MIX PCPN  27  24  89 NW9G17    29.94R WCI  18
LAND O LAKES   CLOUDY    28  25  89 N6        29.95R WCI  21
PHILLIPS       CLOUDY    27  23  85 NW7       29.98R WCI  19
TOMAHAWK       CLOUDY    28  23  83 NW9       29.98R WCI  19
MEDFORD        CLOUDY    28  23  79 NW9       29.98R WCI  20
MERRILL        CLOUDY    29  23  78 NW6       29.98R WCI  23
$$

WIZ029-030-035-036-043>047-020900-
CENTRAL WISCONSIN

CITY           SKY/WX    TMP DP  RH WIND       PRES   REMARKS
WAUSAU         CLOUDY    30  22  72 NW8       29.97R WCI  22
MOSINEE        CLOUDY    30  23  74 NW10      29.99R WCI  21
MARSHFIELD     CLOUDY    30  22  72 N9        29.99R WCI  22
STEVENS POINT  CLOUDY    30  22  72 NW6       29.99R WCI  24
WAUPACA        CLOUDY    35  25  67 W6        29.99R WCI  30
WAUTOMA        CLOUDY    33  23  66 W10       30.01R WCI  25
WISC RAPIDS    CLOUDY    32  24  72 NW8       30.01R WCI  25
CAMP DOUGLAS   CLOUDY    33  27  77 NW8       30.01R WCI  26
$$

WIZ011>013-019>022-031-037>040-048>050-020900-
NORTHEAST WISCONSIN

CITY           SKY/WX    TMP DP  RH WIND       PRES   REMARKS
ANTIGO         CLOUDY    28  22  76 NW7       29.96R WCI  21
SHAWANO        CLOUDY    33  23  67 NW5       29.99R WCI  28
OCONTO         CLEAR     31  22  69 W7        29.97R WCI  24
STURGEON BAY   CLOUDY    34  24  67 NW13      29.95R WCI  25
GREEN BAY      CLOUDY    35  26  69 NW9       29.98R WCI  28
MANITOWOC      CLOUDY    35  25  66 NW9       29.98R WCI  28
APPLETON       CLOUDY    32  23  69 NW8       29.96R WCI  25
CLINTONVILLE   CLOUDY    32  23  69 N8        29.98R WCI  25
OSHKOSH        CLOUDY    34  26  72 NW8       29.97R WCI  27
$$

WIZ032>034-041-042-053>061-020900-
SOUTHWEST WISCONSIN

CITY           SKY/WX    TMP DP  RH WIND       PRES   REMARKS
LA CROSSE      CLOUDY    38  28  67 NW12      30.04R WCI  30
SPARTA         CLOUDY    35  27  75 NW5       30.03R WCI  30
VIROQUA        CLOUDY    33  33 100 NW8       30.00R WCI  26
BOSCOBEL       CLOUDY    38  32  79 SW3       30.04R
PRAIRIE DU CHI CLOUDY    37  32  82 W9        30.04R WCI  30
PLATTEVILLE    CLOUDY    35  35 100 W8        30.03R WCI  29
$$

WIZ056-057-062-063-064-067-068-020900-
SOUTH CENTRAL WISCONSIN

CITY           SKY/WX    TMP DP  RH WIND       PRES   REMARKS
REEDSBURG      CLOUDY    34  28  77 NW7       30.01R WCI  28
BARABOO/DELLS  CLOUDY    34  27  75 NW3       30.00R
LONE ROCK      CLOUDY    36  32  85 W6        30.03R WCI  31
MINERAL POINT  CLOUDY    36  36 100 W7        30.01R WCI  30
MADISON        CLOUDY    35  31  85 VRB3      30.00R
MIDDLETON      CLOUDY    35  35 100 W6        30.01R WCI  30
WATERTOWN      CLOUDY    35  33  94 W7        29.99R WCI  29
MONROE         CLOUDY    34  32  93 SW10      30.01R WCI  26
JANESVILLE     CLOUDY    36  34  93 W7        30.01R WCI  30
$$

WIZ051-052-058>065-066-070>072-020900-
SOUTHEAST WISCONSIN

CITY           SKY/WX    TMP DP  RH WIND       PRES   REMARKS
MILWAUKEE      CLOUDY    38  32  79 W9        29.99R WCI  31
WAUKESHA       CLOUDY    34  32  93 W8        29.99R WCI  27
MILWAUKEE/TIMM DRIZZLE   36  30  80 W8        30.00R WCI  29
RACINE         CLOUDY    37  31  78 W9        30.01R WCI  30
BURLINGTON     CLOUDY    35  32  88 W8        30.00R WCI  29
KENOSHA        CLOUDY    36  32  85 W9        30.00R WCI  29
FOND DU LAC    CLOUDY    34  24  67 W9        29.98R WCI  27
SHEBOYGAN      CLOUDY    36  27  69 NW7       29.97R WCI  30
WEST BEND      CLOUDY    34  32  93 NW8       29.98R WCI  27
JUNEAU         CLOUDY    33  31  94 W3        30.01R
$$

LSZ147-162-020900-
LAKE SUPERIOR

STATION/POSITION TIME  TEMP    WIND        PRES    WAVE
                       AIR SEA DIR/SP/G            HT/PER
                 (UTC) (F)     (DEG/KT/KT) (MB)    (FT/S)
DEVILS ISLAND    0700   31     340/ 13/ 15 1016.9R
PORT WING        0740   32     330/ 10/ 15 1017.3R
SAXON HARBOR     0730   33     310/  9/ 14 1015.9R
$$

LMZ867-665-643>646-020900-
LAKE MICHIGAN

STATION/POSITION TIME  TEMP    WIND        PRES    WAVE
                       AIR SEA DIR/SP/G            HT/PER
                 (UTC) (F)     (DEG/KT/KT) (MB)    (FT/S)
CHAMBERS ISLAND  0740   34     290/  7/ 13 1013.5R
NORTHPORT PIER   0740   35     320/ 17/ 21 1013.5R
SISTER BAY       0738   35     320/ 20/ 25   N/A
ALGOMA LAKESHORE 0721          310/  8/ 11   N/A
KEWAUNEE LAKESHO 0748   35     290/  4/  8 1014.0R
SHEBOYGAN LAKESH 0800   37     310/  5/  7 1015.3R
PORT WASHINGTON  0730   37     260/  4/  6 1015.9R
MILWAUKEE LAKESH 0750   38     270/  8/ 10   N/A
S MID LAKE BUOY  0750   41 49  260/ 19/ 23 1015.0R   5/ 5
KENOSHA   LAKESH 0800   37     260/  9/ 12 1016.3
$$

TC  - TEMPERATURE IN CELSIUS
VSB - VISIBILITY IN STATUTE MILES
WCI - WIND CHILL INDEX
HX  - HEAT INDEX





USA.gov is the U.S. government's official web portal to all federal, state and local government web resources and services.